Time,TemperatureF,DewpointF,PressureIn,WindDirection,WindDirectionDegrees,WindSpeedMPH,WindSpeedGustMPH,Humidity,HourlyPrecipIn,Conditions,Clouds,dailyrainin,SolarRadiationWatts/m^2,SoftwareType,DateUTC
2013-03-25 00:00:00,35.1,27.9,29.83,WNW,287,10.0,17.0,75,0.00,RA,,0.00,0.0,WeatherDisplay:10.37,2013-03-25 05:00:00,
2013-03-25 00:10:00,35.0,27.9,29.83,WNW,290,7.0,18.0,75,0.00,OVC,,0.00,0.0,WeatherDisplay:10.37,2013-03-25 05:10:00,
2013-03-25 00:20:00,35.0,27.9,29.83,West,267,9.0,21.0,75,0.00,OVC,,0.00,0.0,WeatherDisplay:10.37,2013-03-25 05:20:00,
2013-03-25 00:30:00,34.9,27.5,29.83,WNW,288,9.0,17.0,74,0.00,OVC,,0.00,0.0,WeatherDisplay:10.37,2013-03-25 05:30:00,
2013-03-25 00:40:00,34.8,27.7,29.83,WNW,283,9.0,16.0,75,0.00,OVC,,0.00,0.0,WeatherDisplay:10.37,2013-03-25 05:40:00,
2013-03-25 00:50:00,34.8,27.7,29.84,West,268,10.0,20.0,75,0.00,SCT,,0.00,0.0,WeatherDisplay:10.37,2013-03-25 05:50:00,
2013-03-25 01:00:00,34.8,27.4,29.84,West,279,12.0,21.0,74,0.00,SCT,,0.00,0.0,WeatherDisplay:10.37,2013-03-25 06:00:00,
2013-03-25 01:10:00,34.8,27.4,29.84,West,280,9.0,17.0,74,0.00,BKN,,0.00,0.0,WeatherDisplay:10.37,2013-03-25 06:10:00,
2013-03-25 01:20:00,34.8,27.4,29.84,WNW,292,8.0,20.0,74,0.00,BKN,,0.00,0.0,WeatherDisplay:10.37,2013-03-25 06:20:00,
2013-03-25 01:30:00,34.8,27.0,29.84,WNW,287,8.0,20.0,73,0.00,BKN,,0.00,0.0,WeatherDisplay:10.37,2013-03-25 06:30:00,
2013-03-25 01:40:00,34.8,27.0,29.84,WNW,285,9.0,18.0,73,0.00,BKN,,0.00,0.0,WeatherDisplay:10.37,2013-03-25 06:40:00,
2013-03-25 01:50:00,34.8,27.4,29.85,WNW,284,7.0,17.0,74,0.00,OVC,,0.00,0.0,WeatherDisplay:10.37,2013-03-25 06:50:00,
2013-03-25 02:00:00,34.9,27.1,29.85,West,274,9.0,20.0,73,0.00,OVC,,0.00,0.0,WeatherDisplay:10.37,2013-03-25 07:00:00,
2013-03-25 02:10:00,34.8,27.4,29.85,WNW,295,7.0,20.0,74,0.00,OVC,,0.00,0.0,WeatherDisplay:10.37,2013-03-25 07:10:00,
2013-03-25 02:20:00,34.8,27.0,29.85,WNW,295,10.0,20.0,73,0.00,OVC,,0.00,0.0,WeatherDisplay:10.37,2013-03-25 07:20:00,
2013-03-25 02:30:00,34.7,27.3,29.85,West,275,9.0,18.0,74,0.00,OVC,,0.00,0.0,WeatherDisplay:10.37,2013-03-25 07:30:00,
2013-03-25 02:40:00,34.7,27.3,29.85,WNW,290,10.0,18.0,74,0.00,OVC,,0.00,0.0,WeatherDisplay:10.37,2013-03-25 07:40:00,
2013-03-25 02:50:00,34.7,27.3,29.85,WNW,291,8.0,17.0,74,0.00,OVC,,0.00,0.0,WeatherDisplay:10.37,2013-03-25 07:50:00,
2013-03-25 03:00:00,34.7,26.9,29.85,WNW,294,9.0,22.0,73,0.00,OVC,,0.00,0.0,WeatherDisplay:10.37,2013-03-25 08:00:00,
2013-03-25 03:10:00,34.6,26.8,29.85,WNW,288,9.0,15.0,73,0.00,OVC,,0.00,0.0,WeatherDisplay:10.37,2013-03-25 08:10:00,
2013-03-25 03:20:00,34.5,26.8,29.85,WNW,293,7.0,22.0,73,0.00,OVC,,0.00,0.0,WeatherDisplay:10.37,2013-03-25 08:20:00,
2013-03-25 03:30:00,34.5,26.7,29.85,WNW,288,9.0,22.0,73,0.00,OVC,,0.00,0.0,WeatherDisplay:10.37,2013-03-25 08:30:00,
2013-03-25 03:40:00,34.5,26.7,29.85,WNW,291,6.0,20.0,73,0.00,OVC,,0.00,0.0,WeatherDisplay:10.37,2013-03-25 08:40:00,
2013-03-25 03:50:00,34.5,26.7,29.85,WNW,296,6.0,15.0,73,0.00,OVC,,0.00,0.0,WeatherDisplay:10.37,2013-03-25 08:50:00,
2013-03-25 04:00:00,34.5,26.7,29.86,WNW,295,8.0,16.0,73,0.00,OVC,,0.00,0.0,WeatherDisplay:10.37,2013-03-25 09:00:00,
2013-03-25 04:10:00,34.4,26.0,29.86,WNW,284,10.0,16.0,71,0.00,OVC,,0.00,0.0,WeatherDisplay:10.37,2013-03-25 09:10:00,
2013-03-25 04:20:00,34.4,26.3,29.86,WNW,288,7.0,16.0,72,0.00,OVC,,0.00,0.0,WeatherDisplay:10.37,2013-03-25 09:20:00,
2013-03-25 04:30:00,34.4,26.6,29.86,West,279,8.0,16.0,73,0.00,OVC,,0.00,0.0,WeatherDisplay:10.37,2013-03-25 09:30:00,
2013-03-25 04:40:00,34.3,26.6,29.86,WNW,297,6.0,17.0,73,0.00,OVC,,0.00,0.0,WeatherDisplay:10.37,2013-03-25 09:40:00,
2013-03-25 04:50:00,34.2,26.5,29.86,WNW,282,6.0,15.0,73,0.00,OVC,,0.00,0.0,WeatherDisplay:10.37,2013-03-25 09:50:00,
2013-03-25 05:00:00,34.2,26.4,29.86,WNW,284,6.0,16.0,73,0.00,OVC,,0.00,0.0,WeatherDisplay:10.37,2013-03-25 10:00:00,
2013-03-25 05:10:00,34.1,26.7,29.86,WNW,282,6.0,17.0,74,0.00,OVC,,0.00,0.0,WeatherDisplay:10.37,2013-03-25 10:10:00,
2013-03-25 05:20:00,34.0,26.6,29.87,West,274,6.0,12.0,74,0.00,OVC,,0.00,0.0,WeatherDisplay:10.37,2013-03-25 10:20:00,
2013-03-25 05:30:00,34.0,26.6,29.87,WNW,289,5.0,12.0,74,0.00,OVC,,0.00,0.0,WeatherDisplay:10.37,2013-03-25 10:30:00,
2013-03-25 05:40:00,33.9,26.5,29.87,West,267,6.0,10.0,74,0.00,OVC,,0.00,0.0,WeatherDisplay:10.37,2013-03-25 10:40:00,
2013-03-25 05:50:00,33.9,26.8,29.87,West,275,6.0,20.0,75,0.00,OVC,,0.00,0.0,WeatherDisplay:10.37,2013-03-25 10:50:00,
2013-03-25 06:00:00,33.9,26.5,29.88,WNW,292,6.0,18.0,74,0.00,OVC,,0.00,0.0,WeatherDisplay:10.37,2013-03-25 11:00:00,
2013-03-25 06:10:00,33.9,26.2,29.88,WNW,299,6.0,16.0,73,0.00,OVC,,0.00,0.0,WeatherDisplay:10.37,2013-03-25 11:10:00,
2013-03-25 06:20:00,33.8,26.4,29.89,West,273,8.0,14.0,74,0.00,OVC,,0.00,0.0,WeatherDisplay:10.37,2013-03-25 11:20:00,
2013-03-25 06:30:00,33.7,26.0,29.89,WNW,292,8.0,14.0,73,0.00,OVC,,0.00,0.0,WeatherDisplay:10.37,2013-03-25 11:30:00,
2013-03-25 06:40:00,33.7,26.0,29.89,WNW,289,7.0,13.0,73,0.00,OVC,,0.00,0.0,WeatherDisplay:10.37,2013-03-25 11:40:00,
2013-03-25 06:50:00,33.7,26.3,29.89,WNW,284,5.0,13.0,74,0.00,OVC,,0.00,0.0,WeatherDisplay:10.37,2013-03-25 11:50:00,
2013-03-25 07:00:00,33.6,25.9,29.90,WNW,292,6.0,14.0,73,0.00,OVC,,0.00,0.0,WeatherDisplay:10.37,2013-03-25 12:00:00,
2013-03-25 07:10:00,33.6,25.9,29.91,WNW,291,6.0,13.0,73,0.00,OVC,,0.00,0.0,WeatherDisplay:10.37,2013-03-25 12:10:00,
2013-03-25 07:20:00,33.7,25.6,29.91,WNW,291,7.0,16.0,72,0.00,OVC,,0.00,0.0,WeatherDisplay:10.37,2013-03-25 12:20:00,
2013-03-25 07:30:00,33.6,25.9,29.91,WNW,284,7.0,13.0,73,0.00,OVC,,0.00,0.0,WeatherDisplay:10.37,2013-03-25 12:30:00,
2013-03-25 07:40:00,33.5,25.8,29.92,West,275,7.0,16.0,73,0.00,OVC,,0.00,0.0,WeatherDisplay:10.37,2013-03-25 12:40:00,
2013-03-25 07:50:00,33.5,25.8,29.93,WNW,283,7.0,14.0,73,0.00,OVC,,0.00,0.0,WeatherDisplay:10.37,2013-03-25 12:50:00,
2013-03-25 08:00:00,33.5,25.8,29.93,West,261,7.0,12.0,73,0.00,OVC,,0.00,0.0,WeatherDisplay:10.37,2013-03-25 13:00:00,
2013-03-25 08:10:00,33.5,25.8,29.93,West,276,5.0,16.0,73,0.00,OVC,,0.00,0.0,WeatherDisplay:10.37,2013-03-25 13:10:00,
2013-03-25 08:20:00,33.5,25.8,29.94,West,281,6.0,13.0,73,0.00,OVC,,0.00,0.0,WeatherDisplay:10.37,2013-03-25 13:20:00,
2013-03-25 08:30:00,33.6,25.8,29.94,West,280,6.0,14.0,73,0.00,OVC,,0.00,0.0,WeatherDisplay:10.37,2013-03-25 13:30:00,
2013-03-25 08:40:00,33.7,25.6,29.95,West,280,6.0,12.0,72,0.00,OVC,,0.00,0.0,WeatherDisplay:10.37,2013-03-25 13:40:00,
2013-03-25 08:50:00,33.8,26.0,29.95,WNW,298,5.0,13.0,73,0.00,OVC,,0.00,0.0,WeatherDisplay:10.37,2013-03-25 13:50:00,
2013-03-25 09:00:00,33.7,25.3,29.96,NW,313,9.0,14.0,71,0.00,OVC,,0.00,0.0,WeatherDisplay:10.37,2013-03-25 14:00:00,
2013-03-25 09:10:00,33.7,25.6,29.96,WNW,297,5.0,13.0,72,0.00,OVC,,0.00,0.0,WeatherDisplay:10.37,2013-03-25 14:10:00,
2013-03-25 09:20:00,33.7,25.6,29.97,WNW,297,8.0,16.0,72,0.00,OVC,,0.00,0.0,WeatherDisplay:10.37,2013-03-25 14:20:00,
2013-03-25 09:30:00,33.6,24.9,29.97,NW,307,12.0,20.0,70,0.00,OVC,,0.00,0.0,WeatherDisplay:10.37,2013-03-25 14:30:00,
2013-03-25 09:40:00,33.8,24.7,29.97,WNW,301,9.0,15.0,69,0.00,OVC,,0.00,0.0,WeatherDisplay:10.37,2013-03-25 14:40:00,
2013-03-25 09:50:00,33.9,24.8,29.98,NW,307,7.0,15.0,69,0.00,OVC,,0.00,0.0,WeatherDisplay:10.37,2013-03-25 14:50:00,
2013-03-25 10:00:00,33.9,24.8,29.98,NW,307,10.0,16.0,69,0.00,OVC,,0.00,0.0,WeatherDisplay:10.37,2013-03-25 15:00:00,
2013-03-25 10:10:00,33.9,25.5,29.99,NW,311,9.0,16.0,71,0.00,OVC,,0.00,0.0,WeatherDisplay:10.37,2013-03-25 15:10:00,
2013-03-25 10:20:00,33.8,24.7,29.99,NW,312,12.0,18.0,69,0.00,OVC,,0.00,0.0,WeatherDisplay:10.37,2013-03-25 15:20:00,
2013-03-25 10:30:00,34.1,26.0,29.99,WNW,302,6.0,16.0,72,0.00,OVC,,0.00,0.0,WeatherDisplay:10.37,2013-03-25 15:30:00,
2013-03-25 10:40:00,34.4,25.3,30.00,WNW,291,8.0,16.0,69,0.00,OVC,,0.00,0.0,WeatherDisplay:10.37,2013-03-25 15:40:00,
2013-03-25 10:50:00,34.3,25.9,30.00,WNW,302,6.0,16.0,71,0.00,OVC,,0.00,0.0,WeatherDisplay:10.37,2013-03-25 15:50:00,
2013-03-25 11:00:00,34.9,25.8,30.00,NW,310,7.0,20.0,69,0.00,OVC,,0.00,0.0,WeatherDisplay:10.37,2013-03-25 16:00:00,
2013-03-25 11:10:00,35.0,25.1,30.01,WNW,294,6.0,20.0,67,0.00,OVC,,0.00,0.0,WeatherDisplay:10.37,2013-03-25 16:10:00,
2013-03-25 11:20:00,35.3,25.8,30.01,WNW,283,6.0,12.0,68,0.00,OVC,,0.00,0.0,WeatherDisplay:10.37,2013-03-25 16:20:00,
2013-03-25 11:30:00,35.0,24.4,30.01,NW,310,12.0,20.0,65,0.00,OVC,,0.00,0.0,WeatherDisplay:10.37,2013-03-25 16:30:00,
2013-03-25 11:40:00,35.1,24.9,30.02,NW,310,12.0,18.0,66,0.00,OVC,,0.00,0.0,WeatherDisplay:10.37,2013-03-25 16:40:00,
2013-03-25 11:50:00,35.3,25.4,30.02,NW,311,10.0,16.0,67,0.00,OVC,,0.00,0.0,WeatherDisplay:10.37,2013-03-25 16:50:00,
2013-03-25 12:00:00,35.6,25.7,30.02,NW,309,6.0,17.0,67,0.00,OVC,,0.00,0.0,WeatherDisplay:10.37,2013-03-25 17:00:00,
2013-03-25 12:10:00,35.7,26.2,30.02,WNW,282,8.0,13.0,68,0.00,OVC,,0.00,0.0,WeatherDisplay:10.37,2013-03-25 17:10:00,
2013-03-25 12:20:00,35.6,26.1,30.02,WNW,285,8.0,13.0,68,0.00,OVC,,0.00,0.0,WeatherDisplay:10.37,2013-03-25 17:20:00,
2013-03-25 12:30:00,35.8,26.7,30.03,WNW,291,7.0,15.0,69,0.00,OVC,,0.00,0.0,WeatherDisplay:10.37,2013-03-25 17:30:00,
2013-03-25 12:40:00,35.7,26.2,30.03,West,275,8.0,15.0,68,0.00,OVC,,0.00,0.0,WeatherDisplay:10.37,2013-03-25 17:40:00,
2013-03-25 12:50:00,35.7,26.2,30.03,WNW,287,7.0,16.0,68,0.00,OVC,,0.00,0.0,WeatherDisplay:10.37,2013-03-25 17:50:00,
2013-03-25 13:00:00,36.1,25.8,30.03,WNW,299,5.0,13.0,66,0.00,OVC,,0.00,0.0,WeatherDisplay:10.37,2013-03-25 18:00:00,
2013-03-25 13:10:00,35.6,25.7,30.04,WNW,286,8.0,15.0,67,0.00,OVC,,0.00,0.0,WeatherDisplay:10.37,2013-03-25 18:10:00,
2013-03-25 13:20:00,36.0,25.8,30.04,WNW,301,8.0,17.0,66,0.00,OVC,,0.00,0.0,WeatherDisplay:10.37,2013-03-25 18:20:00,
2013-03-25 13:30:00,35.9,25.6,30.04,WNW,294,8.0,16.0,66,0.00,OVC,,0.00,0.0,WeatherDisplay:10.37,2013-03-25 18:30:00,
2013-03-25 13:40:00,35.8,25.5,30.04,NW,306,10.0,17.0,66,0.00,OVC,,0.00,0.0,WeatherDisplay:10.37,2013-03-25 18:40:00,
2013-03-25 13:50:00,36.5,26.2,30.04,NW,307,9.0,15.0,66,0.00,OVC,,0.00,0.0,WeatherDisplay:10.37,2013-03-25 18:50:00,
2013-03-25 14:00:00,36.8,25.7,30.04,NW,307,9.0,17.0,64,0.00,OVC,,0.00,0.0,WeatherDisplay:10.37,2013-03-25 19:00:00,
2013-03-25 14:10:00,36.9,25.9,30.04,NW,305,8.0,15.0,64,0.00,OVC,,0.00,0.0,WeatherDisplay:10.37,2013-03-25 19:10:00,
2013-03-25 14:20:00,37.6,26.9,30.04,WNW,292,7.0,12.0,65,0.00,OVC,,0.00,0.0,WeatherDisplay:10.37,2013-03-25 19:20:00,
2013-03-25 14:30:00,38.5,27.4,30.04,WNW,294,6.0,13.0,64,0.00,OVC,,0.00,0.0,WeatherDisplay:10.37,2013-03-25 19:30:00,
2013-03-25 14:40:00,38.7,26.4,30.04,WNW,300,9.0,16.0,61,0.00,OVC,,0.00,0.0,WeatherDisplay:10.37,2013-03-25 19:40:00,
2013-03-25 14:50:00,38.2,27.4,30.04,West,264,10.0,17.0,65,0.00,OVC,,0.00,0.0,WeatherDisplay:10.37,2013-03-25 19:50:00,
2013-03-25 15:00:00,38.1,27.8,30.04,West,273,7.0,16.0,66,0.00,OVC,,0.00,0.0,WeatherDisplay:10.37,2013-03-25 20:00:00,
2013-03-25 15:10:00,39.1,28.6,30.05,West,270,6.0,20.0,66,0.00,OVC,,0.00,0.0,WeatherDisplay:10.37,2013-03-25 20:10:00,
2013-03-25 15:20:00,39.0,28.2,30.05,WSW,254,8.0,17.0,65,0.00,OVC,,0.00,0.0,WeatherDisplay:10.37,2013-03-25 20:20:00,
2013-03-25 15:30:00,39.1,28.0,30.05,WNW,301,6.0,18.0,64,0.00,OVC,,0.00,0.0,WeatherDisplay:10.37,2013-03-25 20:30:00,
2013-03-25 15:40:00,38.5,27.8,30.05,WNW,294,8.0,20.0,65,0.00,OVC,,0.00,0.0,WeatherDisplay:10.37,2013-03-25 20:40:00,
2013-03-25 15:50:00,39.0,27.8,30.05,WNW,300,7.0,18.0,64,0.00,OVC,,0.00,0.0,WeatherDisplay:10.37,2013-03-25 20:50:00,
2013-03-25 16:00:00,38.6,27.4,30.05,WNW,299,13.0,20.0,64,0.00,OVC,,0.00,0.0,WeatherDisplay:10.37,2013-03-25 21:00:00,
2013-03-25 16:10:00,37.9,28.7,30.06,NW,306,6.0,18.0,69,0.00,OVC,,0.00,0.0,WeatherDisplay:10.37,2013-03-25 21:10:00,
2013-03-25 16:20:00,38.4,28.7,30.06,NW,308,7.0,16.0,68,0.00,OVC,,0.00,0.0,WeatherDisplay:10.37,2013-03-25 21:20:00,
2013-03-25 16:30:00,38.5,28.8,30.06,NW,305,8.0,17.0,68,0.00,OVC,,0.00,0.0,WeatherDisplay:10.37,2013-03-25 21:30:00,
2013-03-25 16:40:00,38.0,28.3,30.06,NW,309,9.0,17.0,68,0.00,OVC,,0.00,0.0,WeatherDisplay:10.37,2013-03-25 21:40:00,
2013-03-25 16:50:00,38.5,28.5,30.07,WNW,302,7.0,16.0,67,0.00,OVC,,0.00,0.0,WeatherDisplay:10.37,2013-03-25 21:50:00,
2013-03-25 17:00:00,38.5,28.1,30.07,WNW,291,9.0,17.0,66,0.00,OVC,,0.00,0.0,WeatherDisplay:10.37,2013-03-25 22:00:00,
2013-03-25 17:10:00,38.0,27.6,30.07,NW,312,8.0,20.0,66,0.00,OVC,,0.00,0.0,WeatherDisplay:10.37,2013-03-25 22:10:00,
2013-03-25 17:20:00,37.4,28.9,30.08,WNW,293,7.0,12.0,71,0.00,OVC,,0.00,0.0,WeatherDisplay:10.37,2013-03-25 22:20:00,
2013-03-25 17:30:00,37.2,28.7,30.08,NW,304,7.0,15.0,71,0.00,OVC,,0.00,0.0,WeatherDisplay:10.37,2013-03-25 22:30:00,
2013-03-25 17:40:00,36.7,28.5,30.08,WNW,300,12.0,17.0,72,0.00,OVC,,0.00,0.0,WeatherDisplay:10.37,2013-03-25 22:40:00,
2013-03-25 17:50:00,36.5,29.3,30.09,WNW,296,7.0,15.0,75,0.00,OVC,,0.00,0.0,WeatherDisplay:10.37,2013-03-25 22:50:00,
2013-03-25 18:00:00,36.8,29.0,30.09,WNW,296,3.0,12.0,73,0.00,OVC,,0.00,0.0,WeatherDisplay:10.37,2013-03-25 23:00:00,
2013-03-25 18:10:00,37.2,29.0,30.09,WNW,289,5.0,12.0,72,0.00,OVC,,0.00,0.0,WeatherDisplay:10.37,2013-03-25 23:10:00,
2013-03-25 18:20:00,37.5,28.6,30.09,West,281,3.0,9.0,70,0.00,OVC,,0.00,0.0,WeatherDisplay:10.37,2013-03-25 23:20:00,
2013-03-25 18:30:00,37.4,28.1,30.09,WNW,291,3.0,10.0,69,0.00,OVC,,0.00,0.0,WeatherDisplay:10.37,2013-03-25 23:30:00,
2013-03-25 18:40:00,37.6,28.4,30.10,NW,309,3.0,9.0,69,0.00,OVC,,0.00,0.0,WeatherDisplay:10.37,2013-03-25 23:40:00,
2013-03-25 18:50:00,37.6,27.3,30.10,WNW,299,8.0,15.0,66,0.00,OVC,,0.00,0.0,WeatherDisplay:10.37,2013-03-25 23:50:00,
2013-03-25 19:00:00,37.2,27.2,30.11,NW,307,5.0,14.0,67,0.00,OVC,,0.00,0.0,WeatherDisplay:10.37,2013-03-26 00:00:00,
2013-03-25 19:10:00,36.9,27.4,30.11,NW,305,5.0,12.0,68,0.00,OVC,,0.00,0.0,WeatherDisplay:10.37,2013-03-26 00:10:00,
2013-03-25 19:20:00,36.7,27.5,30.11,WNW,291,2.0,7.0,69,0.00,OVC,,0.00,0.0,WeatherDisplay:10.37,2013-03-26 00:20:00,
2013-03-25 19:30:00,36.7,27.1,30.11,West,280,7.0,12.0,68,0.00,OVC,,0.00,0.0,WeatherDisplay:10.37,2013-03-26 00:30:00,
2013-03-25 19:40:00,36.7,27.5,30.12,WNW,295,6.0,9.0,69,0.00,OVC,,0.00,0.0,WeatherDisplay:10.37,2013-03-26 00:40:00,
2013-03-25 19:50:00,36.6,27.4,30.12,WNW,299,5.0,13.0,69,0.00,OVC,,0.00,0.0,WeatherDisplay:10.37,2013-03-26 00:50:00,
2013-03-25 20:00:00,36.5,27.6,30.13,WNW,296,2.0,14.0,70,0.00,OVC,,0.00,0.0,WeatherDisplay:10.37,2013-03-26 01:00:00,
2013-03-25 20:10:00,36.3,27.4,30.13,WNW,298,7.0,13.0,70,0.00,OVC,,0.00,0.0,WeatherDisplay:10.37,2013-03-26 01:10:00,
2013-03-25 20:20:00,36.2,27.7,30.13,West,281,6.0,16.0,71,0.00,BKN,,0.00,0.0,WeatherDisplay:10.37,2013-03-26 01:20:00,
2013-03-25 20:30:00,36.1,26.9,30.14,WNW,290,8.0,12.0,69,0.00,BKN,,0.00,0.0,WeatherDisplay:10.37,2013-03-26 01:30:00,
2013-03-25 20:40:00,36.0,27.2,30.14,NW,307,6.0,12.0,70,0.00,OVC,,0.00,0.0,WeatherDisplay:10.37,2013-03-26 01:40:00,
2013-03-25 20:50:00,36.0,27.2,30.14,WNW,289,5.0,12.0,70,0.00,OVC,,0.00,0.0,WeatherDisplay:10.37,2013-03-26 01:50:00,
2013-03-25 21:00:00,35.9,27.7,30.14,NW,304,8.0,15.0,72,0.00,OVC,,0.00,0.0,WeatherDisplay:10.37,2013-03-26 02:00:00,
2013-03-25 21:10:00,35.6,28.1,30.15,WNW,300,5.0,15.0,74,0.00,OVC,,0.00,0.0,WeatherDisplay:10.37,2013-03-26 02:10:00,
2013-03-25 21:20:00,35.3,28.2,30.15,WNW,297,5.0,12.0,75,0.00,OVC,,0.00,0.0,WeatherDisplay:10.37,2013-03-26 02:20:00,
2013-03-25 21:30:00,35.5,28.0,30.15,NW,305,5.0,13.0,74,0.00,OVC,,0.00,0.0,WeatherDisplay:10.37,2013-03-26 02:30:00,
2013-03-25 21:40:00,35.7,27.9,30.15,WNW,303,3.0,14.0,73,0.00,OVC,,0.00,0.0,WeatherDisplay:10.37,2013-03-26 02:40:00,
2013-03-25 21:50:00,35.6,27.8,30.15,WNW,285,5.0,10.0,73,0.00,OVC,,0.00,0.0,WeatherDisplay:10.37,2013-03-26 02:50:00,
2013-03-25 22:00:00,35.6,27.8,30.16,WNW,294,3.0,10.0,73,0.00,OVC,,0.00,0.0,WeatherDisplay:10.37,2013-03-26 03:00:00,
2013-03-25 22:10:00,35.6,27.8,30.16,WNW,284,6.0,12.0,73,0.00,OVC,,0.00,0.0,WeatherDisplay:10.37,2013-03-26 03:10:00,
2013-03-25 22:20:00,35.6,28.1,30.16,WNW,295,2.0,9.0,74,0.00,OVC,,0.00,0.0,WeatherDisplay:10.37,2013-03-26 03:20:00,
2013-03-25 22:30:00,35.6,28.1,30.17,NW,306,5.0,9.0,74,0.00,OVC,,0.00,0.0,WeatherDisplay:10.37,2013-03-26 03:30:00,
2013-03-25 22:40:00,33.7,29.4,30.18,NNW,337,13.0,22.0,84,0.00,OVC,,0.00,0.0,WeatherDisplay:10.37,2013-03-26 03:40:00,
2013-03-25 22:50:00,32.0,28.9,30.18,NNW,336,9.0,21.0,88,0.00,OVC,,0.00,0.0,WeatherDisplay:10.37,2013-03-26 03:50:00,
2013-03-25 23:00:00,31.8,28.7,30.18,NNW,332,10.0,17.0,88,0.00,OVC,,0.00,0.0,WeatherDisplay:10.37,2013-03-26 04:00:00,
2013-03-25 23:10:00,31.7,28.8,30.18,NW,323,8.0,18.0,89,0.00,OVC,,0.00,0.0,WeatherDisplay:10.37,2013-03-26 04:10:00,
2013-03-25 23:20:00,31.6,29.3,30.18,NNW,329,8.0,15.0,91,0.00,OVC,,0.00,0.0,WeatherDisplay:10.37,2013-03-26 04:20:00,
2013-03-25 23:30:00,31.8,29.5,30.18,NW,317,6.0,12.0,91,0.00,OVC,,0.00,0.0,WeatherDisplay:10.37,2013-03-26 04:30:00,
2013-03-25 23:40:00,32.0,29.4,30.18,NW,324,3.0,9.0,90,0.00,OVC,,0.00,0.0,WeatherDisplay:10.37,2013-03-26 04:40:00,
2013-03-25 23:50:00,32.3,29.4,30.18,NW,310,6.0,10.0,89,0.00,OVC,,0.00,0.0,WeatherDisplay:10.37,2013-03-26 04:50:00,